Anchorage Merrill, AK

1:28 AM AKDT on March 30, 2017 (GMT -0800)
Merrill

Weather History for PAMR - February, 2011

Change the Weather History Date:

Tuesday, February 15, 2011

  Actual Average Record
Temperature  
Mean Temperature 11 °F -  
Max Temperature 21 °F 27 °F 41 °F (2016)
Min Temperature 1 °F 14 °F 9 °F (2014)
Degree Days  
Heating Degree Days 54    
Moisture  
Dew Point -5 °F    
Average Humidity 50    
Maximum Humidity 72    
Minimum Humidity 30    
Precipitation  
Precipitation 0.00 in - - ()
Snow  
Snow 0.00 in - - ()
Snow Depth 8.00 in    
Sea Level Pressure  
Sea Level Pressure 29.86 in    
Wind  
Wind Speed 6 mph (NE)    
Max Wind Speed 17 mph    
Max Gust Speed 23 mph    
Visibility 10 miles    
Events      
Averages and records for this station are not official NWS values.
T = Trace of Precipitation, MM = Missing Value Source: NWS Daily Summary

Daily Weather History Graph

Daily Weather History Graph

Search for Another Location

Airport or City:

Trip Planner

Search our weather history database for the weather conditions in past years. The results will help you decide how hot, cold, wet, or windy it might be!

Date:

Astronomy

Feb. 15, 2011 Rise Set
Actual Time 8:41 AM AKST 5:46 PM AKST
Civil Twilight 7:56 AM AKST 6:31 PM AKST
Nautical Twilight 7:05 AM AKST 7:22 PM AKST
Astronomical Twilight 6:15 AM AKST 8:12 PM AKST
Moon 2:23 PM AKST (2/15) 7:31 AM AKST (2/15)
Length of Visible Light 10h 35m
Length of Day
9h 04m
Waxing Gibbous, 91% of the Moon is Illuminated
Feb 15
Waxing Gibbous
Feb 17
Full
Feb 24
Last Quarter
Mar 4
New
Mar 12
First Quarter

Hourly Weather History & Observations

Time (AKST) Temp. Windchill Dew Point Humidity Pressure Visibility Wind Dir Wind Speed Gust Speed Precip Events Conditions
12:53 AM 18.0 °F 4.2 °F -5.1 °F 36% 29.89 in 10.0 mi NNW 13.8 mph 23.0 mph N/A   Clear
1:53 AM 18.0 °F 2.6 °F -2.9 °F 40% 29.90 in 10.0 mi NNW 17.3 mph 23.0 mph N/A   Clear
2:53 AM 17.1 °F 6.6 °F -4.0 °F 39% 29.91 in 10.0 mi North 8.1 mph 17.3 mph N/A   Clear
3:53 AM 12.9 °F 5.2 °F -4.0 °F 47% 29.92 in 10.0 mi NE 4.6 mph - N/A   Clear
4:53 AM 14.0 °F 1.2 °F -5.1 °F 43% 29.91 in 10.0 mi NNW 10.4 mph - N/A   Clear
5:53 AM 10.0 °F 1.8 °F -6.0 °F 48% 29.92 in 10.0 mi ENE 4.6 mph - N/A   Clear
6:53 AM 12.9 °F 6.9 °F -6.0 °F 43% 29.92 in 10.0 mi ENE 3.5 mph - N/A   Clear
7:53 AM 3.0 °F - -6.0 °F 66% 29.92 in 10.0 mi North - - N/A   Clear
8:53 AM 1.9 °F - -5.1 °F 72% 29.92 in 10.0 mi North - - N/A   Clear
9:53 AM 1.9 °F -5.6 °F -6.0 °F 69% 29.93 in 10.0 mi Variable 3.5 mph - N/A   Clear
10:53 AM 10.0 °F 3.6 °F -2.9 °F 56% 29.92 in 10.0 mi East 3.5 mph - N/A   Clear
11:53 AM 17.1 °F - -2.9 °F 41% 29.91 in 10.0 mi Calm Calm - N/A   Clear
12:53 PM 19.9 °F - -6.0 °F 32% 29.89 in 10.0 mi Calm Calm - N/A   Clear
1:53 PM 21.0 °F - -6.0 °F 30% 29.87 in 10.0 mi Calm Calm - N/A   Clear
2:53 PM 19.9 °F - -6.0 °F 32% 29.85 in 10.0 mi Calm Calm - N/A   Clear
3:53 PM 19.0 °F - -6.0 °F 33% 29.83 in 10.0 mi Calm Calm - N/A   Clear
4:53 PM 17.1 °F - -7.1 °F 34% 29.81 in 10.0 mi Calm Calm - N/A   Clear
5:53 PM 10.9 °F - -5.1 °F 49% 29.80 in 10.0 mi Calm Calm - N/A   Clear
6:53 PM 10.9 °F - -4.0 °F 51% 29.78 in 10.0 mi Calm Calm - N/A   Clear
7:53 PM 7.0 °F - -2.9 °F 64% 29.78 in 10.0 mi Calm Calm - N/A   Clear
8:53 PM 5.0 °F - -4.0 °F 66% 29.76 in 10.0 mi Calm Calm - N/A   Clear
9:53 PM 1.9 °F -5.6 °F -5.1 °F 72% 29.76 in 10.0 mi East 3.5 mph - N/A   Clear
10:53 PM 1.9 °F -7.6 °F -6.0 °F 69% 29.76 in 10.0 mi East 4.6 mph - N/A   Partly Cloudy
11:53 PM 3.9 °F - -6.0 °F 64% 29.76 in 10.0 mi Calm Calm - N/A   Partly Cloudy